Vicksburg, LA

2:48 PM CDT on August 23, 2017 (GMT -0500)
Vicksburg Tallulah Regional

Weather History for KTVR - October, 2010

Change the Weather History Date:

Monday, October 4, 2010

  Actual Average Record
Temperature  
Mean Temperature 57 °F 70 °F  
Max Temperature 73 °F 82 °F 95 °F (2006)
Min Temperature 41 °F 57 °F 37 °F (1961)
Degree Days  
Heating Degree Days 8 1  
Month to date heating degree days 9 4  
Since 1 July heating degree days 9 9  
Cooling Degree Days 0 6  
Month to date cooling degree days 8 24  
Year to date cooling degree days 2613 2121  
Growing Degree Days 8 (Base 50)    
Moisture  
Dew Point 36 °F    
Average Humidity 51    
Maximum Humidity 82    
Minimum Humidity 19    
Precipitation  
Precipitation 0.00 in 0.13 in 1.92 in (2009)
Month to date precipitation 0.00 0.51  
Year to date precipitation 26.03 39.97  
Sea Level Pressure  
Sea Level Pressure 30.31 in    
Wind  
Wind Speed 7 mph (NNE)    
Max Wind Speed 17 mph    
Max Gust Speed 23 mph    
Visibility 10 miles    
Events      
T = Trace of Precipitation, MM = Missing Value Source: NWS Daily Summary

Daily Weather History Graph

Daily Weather History Graph

Search for Another Location

Airport or City:

Trip Planner

Search our weather history database for the weather conditions in past years. The results will help you decide how hot, cold, wet, or windy it might be!

Date:

Astronomy

Oct. 04, 2010 Rise Set
Actual Time 7:00 AM CDT 6:44 PM CDT
Civil Twilight 6:35 AM CDT 7:09 PM CDT
Nautical Twilight 6:07 AM CDT 7:37 PM CDT
Astronomical Twilight 5:38 AM CDT 8:06 PM CDT
Moon 3:21 AM CDT (10/4) 4:34 PM CDT (10/4)
Length of Visible Light 12h 33m
Length of Day
11h 44m
Waning Crescent, 14% of the Moon is Illuminated
Oct 4
Waning Crescent
Oct 7
New
Oct 14
First Quarter
Oct 22
Full
Oct 30
Last Quarter

Hourly Weather History & Observations

Time (CDT) Temp. Windchill Dew Point Humidity Pressure Visibility Wind Dir Wind Speed Gust Speed Precip Events Conditions
12:53 AM 54.0 °F - 37.9 °F 55% 30.27 in 10.0 mi NNE 9.2 mph - N/A   Clear
1:53 AM 51.1 °F - 37.9 °F 61% 30.27 in 10.0 mi NNE 6.9 mph - N/A   Clear
2:53 AM 48.0 °F - 37.9 °F 68% 30.27 in 10.0 mi North 6.9 mph - N/A   Clear
3:53 AM 46.0 °F 42.5 °F 37.9 °F 73% 30.27 in 10.0 mi NNE 6.9 mph - N/A   Clear
4:53 AM 46.9 °F - 39.0 °F 74% 30.28 in 10.0 mi NNE 6.9 mph - N/A   Clear
5:53 AM 46.0 °F 44.8 °F 39.0 °F 76% 30.30 in 10.0 mi North 3.5 mph - N/A   Clear
6:53 AM 45.0 °F 42.6 °F 37.9 °F 76% 30.33 in 10.0 mi NNE 4.6 mph - N/A   Clear
7:53 AM 50.0 °F - 41.0 °F 71% 30.35 in 10.0 mi Calm Calm - N/A   Clear
8:53 AM 55.9 °F - 39.0 °F 53% 30.37 in 10.0 mi NNE 5.8 mph - N/A   Clear
9:53 AM 61.0 °F - 39.0 °F 44% 30.38 in 10.0 mi NE 4.6 mph - N/A   Clear
10:53 AM 64.0 °F - 37.9 °F 38% 30.38 in 10.0 mi NNE 9.2 mph - N/A   Clear
11:53 AM 66.9 °F - 35.1 °F 31% 30.36 in 10.0 mi North 9.2 mph - 0.00 in   Clear
12:53 PM 69.1 °F - 34.0 °F 27% 30.34 in 10.0 mi NE 11.5 mph - N/A   Clear
1:53 PM 71.1 °F - 32.0 °F 24% 30.30 in 10.0 mi North 13.8 mph - N/A   Clear
2:53 PM 73.0 °F - 30.0 °F 20% 30.28 in 10.0 mi North 9.2 mph 19.6 mph N/A   Clear
3:53 PM 72.0 °F - 27.0 °F 19% 30.27 in 10.0 mi North 13.8 mph 19.6 mph N/A   Clear
4:53 PM 72.0 °F - 28.0 °F 20% 30.26 in 10.0 mi North 12.7 mph - N/A   Clear
5:53 PM 69.1 °F - 30.0 °F 23% 30.26 in 10.0 mi NNE 10.4 mph - N/A   Clear
6:53 PM 61.0 °F - 34.0 °F 36% 30.27 in 10.0 mi NNE 5.8 mph - N/A   Clear
7:53 PM 53.1 °F - 35.1 °F 50% 30.28 in 10.0 mi NNW 3.5 mph - N/A   Clear
8:53 PM 51.1 °F - 36.0 °F 56% 30.30 in 10.0 mi North 3.5 mph - N/A   Clear
9:53 PM 50.0 °F - 37.0 °F 61% 30.32 in 10.0 mi North 3.5 mph - N/A   Clear
10:53 PM 42.1 °F 39.2 °F 37.0 °F 82% 30.32 in 10.0 mi North 4.6 mph - N/A   Clear
11:53 PM 46.0 °F 43.9 °F 36.0 °F 68% 30.32 in 10.0 mi NNE 4.6 mph - N/A   Clear